When you browse on this site, cookies collect data to enhance your experience and personalize the content and advertising you see.
Visit our Privacy Policy to learn more. By continuing to use the site, you agree to this use of cookies and data.
  • en France
  • Liste des pays
  • À 7 jours
  • Température de l'eau
  • Carte météo
  • Widgets météo
  • user-avatar
    Se connecter

    Météo par heure à Bochenka

    Ce jour, 23 Octobre, Mercredi

    Heure Température Précipitation Vent Pression Humidité
    00:00 +14°C° 0 mm 1 m/s 743 mmHg 84%
    01:00 +14°C° 0 mm 1 m/s 744 mmHg 83%
    02:00 +13°C° 0 mm 1 m/s 743 mmHg 85%
    03:00 +13°C° 0 mm 1 m/s 743 mmHg 86%
    04:00 +12°C° 0 mm 1 m/s 743 mmHg 87%
    05:00 +12°C° 0 mm 1 m/s 743 mmHg 86%
    06:00 +12°C° 0 mm 1 m/s 743 mmHg 86%
    07:00 +12°C° 0 mm 1 m/s 743 mmHg 85%
    08:00 +14°C° 0 mm 1 m/s 743 mmHg 78%
    09:00 +16°C° 0 mm 1 m/s 743 mmHg 71%
    10:00 +19°C° 0 mm 1 m/s 743 mmHg 63%
    11:00 +19°C° 0 mm 1 m/s 743 mmHg 61%
    12:00 +20°C° 0 mm 1 m/s 743 mmHg 59%
    13:00 +21°C° 0 mm 1 m/s 742 mmHg 56%
    14:00 +19°C° 0 mm 2 m/s 742 mmHg 61%
    15:00 +19°C° 0 mm 2 m/s 741 mmHg 65%
    16:00 +18°C° 0 mm 2 m/s 741 mmHg 69%
    17:00 +17°C° 0 mm 2 m/s 741 mmHg 74%
    18:00 +16°C° 0 mm 2 m/s 741 mmHg 79%
    19:00 +15°C° 0 mm 2 m/s 741 mmHg 84%
    20:00 +14°C° 0 mm 2 m/s 740 mmHg 86%
    21:00 +14°C° 0 mm 2 m/s 740 mmHg 88%
    22:00 +14°C° 0 mm 2 m/s 740 mmHg 89%
    23:00 +13°C° 0 mm 2 m/s 740 mmHg 90%

    Demain, 24 Octobre, Jeudi

    Heure Température Précipitation Vent Pression Humidité
    00:00 +13°C° 0 mm 2 m/s 740 mmHg 91%
    01:00 +13°C° 0 mm 2 m/s 739 mmHg 91%
    02:00 +13°C° 0 mm 2 m/s 739 mmHg 92%
    03:00 +11°C° 0 mm 3 m/s 738 mmHg 92%
    04:00 +11°C° 0 mm 3 m/s 738 mmHg 92%
    05:00 +11°C° 0 mm 3 m/s 738 mmHg 92%
    06:00 +12°C° 0 mm 2 m/s 737 mmHg 91%
    07:00 +12°C° 0 mm 2 m/s 737 mmHg 90%
    08:00 +14°C° 0 mm 2 m/s 737 mmHg 81%
    09:00 +16°C° 0 mm 3 m/s 737 mmHg 72%
    10:00 +18°C° 0 mm 3 m/s 737 mmHg 63%
    11:00 +19°C° 0 mm 3 m/s 737 mmHg 59%
    12:00 +20°C° 0 mm 3 m/s 736 mmHg 54%
    13:00 +22°C° 0 mm 3 m/s 736 mmHg 50%
    14:00 +21°C° 0 mm 2 m/s 736 mmHg 54%
    15:00 +20°C° 0 mm 2 m/s 735 mmHg 58%
    16:00 +19°C° 0 mm 2 m/s 735 mmHg 61%
    17:00 +18°C° 0 mm 2 m/s 735 mmHg 63%
    18:00 +17°C° 0 mm 2 m/s 735 mmHg 64%
    19:00 +16°C° 0 mm 2 m/s 735 mmHg 65%
    20:00 +16°C° 0 mm 2 m/s 736 mmHg 64%
    21:00 +15°C° 0 mm 2 m/s 736 mmHg 64%
    22:00 +15°C° 0 mm 2 m/s 736 mmHg 63%
    23:00 +15°C° 0 mm 2 m/s 736 mmHg 62%

    Après-demain, 25 Octobre, Vendredi

    Heure Température Précipitation Vent Pression Humidité
    00:00 +15°C° 0 mm 2 m/s 737 mmHg 62%
    01:00 +15°C° 0 mm 2 m/s 737 mmHg 61%
    02:00 +13°C° 0 mm 3 m/s 737 mmHg 64%
    03:00 +13°C° 0 mm 3 m/s 737 mmHg 67%
    04:00 +12°C° 0 mm 3 m/s 738 mmHg 70%
    05:00 +12°C° 0 mm 3 m/s 738 mmHg 75%
    06:00 +12°C° 0 mm 3 m/s 738 mmHg 81%
    07:00 +11°C° 0 mm 3 m/s 739 mmHg 86%
    08:00 +13°C° 0 mm 3 m/s 739 mmHg 81%
    09:00 +14°C° 0 mm 3 m/s 740 mmHg 77%
    10:00 +17°C° 0 mm 4 m/s 741 mmHg 72%
    11:00 +18°C° 0 mm 4 m/s 741 mmHg 69%
    12:00 +18°C° 0 mm 4 m/s 741 mmHg 65%
    13:00 +19°C° 0 mm 4 m/s 741 mmHg 62%
    14:00 +18°C° 0 mm 3 m/s 742 mmHg 65%
    15:00 +17°C° 0 mm 3 m/s 742 mmHg 68%
    16:00 +16°C° 0 mm 2 m/s 742 mmHg 72%
    17:00 +15°C° 0 mm 2 m/s 742 mmHg 75%
    18:00 +14°C° 0 mm 1 m/s 742 mmHg 78%
    19:00 +13°C° 0 mm 1 m/s 743 mmHg 81%
    20:00 +13°C° 0 mm 1 m/s 743 mmHg 82%
    21:00 +12°C° 0 mm 0 m/s 743 mmHg 83%
    22:00 +11°C° 0 mm 0 m/s 743 mmHg 85%
    23:00 +12°C° 0 mm 1 m/s 743 mmHg 85%

    26 Octobre, Samedi

    Heure Température Précipitation Vent Pression Humidité
    00:00 +12°C° 0 mm 1 m/s 743 mmHg 86%
    01:00 +11°C° 0 mm 1 m/s 742 mmHg 87%
    02:00 +10°C° 0 mm 2 m/s 742 mmHg 88%
    03:00 +10°C° 0 mm 2 m/s 742 mmHg 88%
    04:00 +10°C° 0 mm 2 m/s 742 mmHg 89%
    05:00 +10°C° 0 mm 2 m/s 741 mmHg 90%
    06:00 +10°C° 0 mm 3 m/s 741 mmHg 91%
    07:00 +10°C° 0 mm 3 m/s 740 mmHg 92%
    08:00 +12°C° 0 mm 3 m/s 740 mmHg 84%
    09:00 +14°C° 0 mm 4 m/s 740 mmHg 77%
    10:00 +16°C° 0 mm 5 m/s 740 mmHg 69%
    11:00 +17°C° 0 mm 5 m/s 740 mmHg 62%
    12:00 +19°C° 0 mm 6 m/s 739 mmHg 55%
    13:00 +20°C° 0 mm 6 m/s 739 mmHg 48%
    14:00 +19°C° 0 mm 5 m/s 738 mmHg 52%
    15:00 +18°C° 0 mm 4 m/s 738 mmHg 57%
    16:00 +17°C° 0 mm 4 m/s 738 mmHg 61%
    17:00 +15°C° 0 mm 4 m/s 738 mmHg 65%
    18:00 +15°C° 0 mm 4 m/s 738 mmHg 69%
    19:00 +14°C° 0 mm 4 m/s 738 mmHg 72%
    20:00 +14°C° 0 mm 4 m/s 738 mmHg 74%
    21:00 +13°C° 0 mm 4 m/s 738 mmHg 75%
    22:00 +13°C° 0 mm 4 m/s 738 mmHg 77%
    23:00 +13°C° 0 mm 4 m/s 738 mmHg 77%

    27 Octobre, Dimanche

    Heure Température Précipitation Vent Pression Humidité
    00:00 +13°C° 0 mm 4 m/s 737 mmHg 77%
    01:00 +13°C° 0 mm 4 m/s 737 mmHg 77%
    02:00 +12°C° 0 mm 4 m/s 737 mmHg 77%
    03:00 +12°C° 0 mm 4 m/s 737 mmHg 77%
    04:00 +12°C° 0 mm 4 m/s 737 mmHg 77%
    05:00 +12°C° 0 mm 4 m/s 737 mmHg 78%
    06:00 +12°C° 0 mm 4 m/s 737 mmHg 78%
    07:00 +12°C° 0 mm 4 m/s 737 mmHg 79%
    08:00 +13°C° 0 mm 5 m/s 737 mmHg 74%
    09:00 +14°C° 0 mm 5 m/s 737 mmHg 69%
    10:00 +15°C° 0 mm 6 m/s 738 mmHg 63%
    11:00 +15°C° 0 mm 6 m/s 737 mmHg 62%
    12:00 +15°C° 0 mm 6 m/s 737 mmHg 61%
    13:00 +16°C° 0 mm 6 m/s 737 mmHg 60%
    14:00 +14°C° 0.2 mm 6 m/s 737 mmHg 67%
    15:00 +11°C° 0.2 mm 6 m/s 738 mmHg 73%
    16:00 +9°C° 0.2 mm 7 m/s 738 mmHg 80%
    17:00 +8°C° 0.3 mm 6 m/s 738 mmHg 76%
    18:00 +8°C° 0.3 mm 5 m/s 739 mmHg 72%
    19:00 +7°C° 0.3 mm 4 m/s 739 mmHg 68%
    20:00 +8°C° 0 mm 3 m/s 740 mmHg 70%
    21:00 +7°C° 0 mm 3 m/s 740 mmHg 73%
    22:00 +7°C° 0 mm 3 m/s 740 mmHg 76%
    23:00 +5°C° 0 mm 3 m/s 740 mmHg 78%

    28 Octobre, Lundi

    Heure Température Précipitation Vent Pression Humidité
    00:00 +5°C° 0 mm 3 m/s 740 mmHg 81%
    01:00 +4°C° 0 mm 3 m/s 740 mmHg 83%
    02:00 +4°C° 0 mm 3 m/s 740 mmHg 83%
    03:00 +4°C° 0 mm 3 m/s 739 mmHg 83%
    04:00 +4°C° 0 mm 3 m/s 739 mmHg 83%
    05:00 +4°C° 0 mm 3 m/s 739 mmHg 83%
    06:00 +4°C° 0 mm 4 m/s 739 mmHg 83%
    07:00 +3°C° 0 mm 4 m/s 739 mmHg 83%
    08:00 +4°C° 0 mm 4 m/s 739 mmHg 79%
    09:00 +5°C° 0 mm 4 m/s 739 mmHg 75%
    10:00 +6°C° 0 mm 5 m/s 739 mmHg 71%
    11:00 +7°C° 0 mm 5 m/s 739 mmHg 68%
    12:00 +7°C° 0 mm 5 m/s 739 mmHg 66%
    13:00 +7°C° 0 mm 6 m/s 739 mmHg 63%
    14:00 +7°C° 0 mm 5 m/s 739 mmHg 63%
    15:00 +7°C° 0 mm 5 m/s 738 mmHg 62%
    16:00 +6°C° 0 mm 4 m/s 738 mmHg 62%
    17:00 +6°C° 0 mm 4 m/s 738 mmHg 65%
    18:00 +5°C° 0 mm 4 m/s 739 mmHg 67%
    19:00 +4°C° 0 mm 3 m/s 739 mmHg 70%
    20:00 +4°C° 0 mm 4 m/s 739 mmHg 70%
    21:00 +4°C° 0 mm 4 m/s 739 mmHg 70%
    22:00 +3°C° 0 mm 4 m/s 739 mmHg 70%
    23:00 +3°C° 0 mm 4 m/s 739 mmHg 73%

    29 Octobre, Mardi

    Heure Température Précipitation Vent Pression Humidité
    00:00 +3°C° 0 mm 4 m/s 739 mmHg 75%
    01:00 +3°C° 0 mm 4 m/s 739 mmHg 78%
    02:00 +2°C° 0 mm 5 m/s 738 mmHg 80%
    03:00 +1°C° 0 mm 5 m/s 738 mmHg 82%
    04:00 +1°C° 0 mm 5 m/s 738 mmHg 85%
    05:00 +1°C° 0 mm 5 m/s 739 mmHg 86%
    06:00 +1°C° 0 mm 4 m/s 739 mmHg 86%
    07:00 +1°C° 0 mm 4 m/s 739 mmHg 87%
    08:00 +1°C° 0.1 mm 4 m/s 740 mmHg 85%
    09:00 +1°C° 0.1 mm 4 m/s 741 mmHg 83%
    10:00 +3°C° 0.1 mm 4 m/s 741 mmHg 81%
    11:00 +3°C° 0 mm 4 m/s 742 mmHg 70%
    12:00 +3°C° 0 mm 5 m/s 742 mmHg 60%
    13:00 +5°C° 0 mm 5 m/s 743 mmHg 49%
    14:00 +3°C° 0 mm 5 m/s 743 mmHg 47%
    15:00 +3°C° 0 mm 4 m/s 743 mmHg 44%
    16:00 +3°C° 0 mm 4 m/s 744 mmHg 41%
    17:00 +2°C° 0 mm 3 m/s 744 mmHg 46%
    18:00 +1°C° 0 mm 3 m/s 745 mmHg 50%
    19:00 0°C° 0 mm 3 m/s 746 mmHg 54%
    20:00 0°C° 0 mm 3 m/s 746 mmHg 63%
    21:00 0°C° 0 mm 3 m/s 747 mmHg 71%
    22:00 0°C° 0 mm 3 m/s 748 mmHg 79%
    23:00 -2°C° 0 mm 4 m/s 748 mmHg 77%
    Voir plus